Location: Castro Valley
(37.6940°N, 122.0850°W)
Time: 13:48:40
(UTC-08:00)

Amateur Radio Satellites - All Passes

Search period start: 03 December 2016 13:18
Search period end: 04 December 2016 13:18
Location: Castro Valley, 37.6940°N, 122.0850°W

Satellite Date Start Highest point End Downlink Frequencies (MHz)
Time Altitude Azimuth
BEESAT 3 03 Dec 13:21:55 13:22:58 11° 44° (NE) 13:24:02 437.485
DX 1 03 Dec 13:29:03 13:32:47 27° 291° (WNW) 13:36:29 434.975-435.025
RS-15 03 Dec 13:30:51 13:38:49 19° 12° (NNE) 13:46:45 29.354- 29.394
JUGNU 03 Dec 13:33:08 13:35:43 13° 177° (S) 13:38:16 437.505
Oscar 19 03 Dec 13:37:13 13:41:44 31° 263° (W) 13:46:17 437.125/150
PCSat 03 Dec 13:38:24 13:42:04 18° 312° (NW) 13:45:44 145.827
UKube-1 03 Dec 13:42:09 13:45:45 26° 291° (WNW) 13:49:21 .
Cosmos 2499 03 Dec 13:52:53 13:59:09 23° 280° (W) 14:05:08 435.465 / 435.565
TISAT 1 03 Dec 13:57:19 14:01:31 63° 285° (WNW) 14:05:40 437.305
ITAMSAT 1 03 Dec 13:58:30 14:03:27 45° 71° (ENE) 14:08:25 435.822/435.867
AUBIESAT-1 03 Dec 13:58:44 14:02:08 20° 98° (E) 14:05:26 437.475
SWISSCUBE 03 Dec 14:02:33 14:06:36 27° 96° (E) 14:10:38 437.505
BEESAT 03 Dec 14:06:56 14:10:58 27° 96° (E) 14:14:59 436.000
M-CUBED/EXP-1 PRIME 03 Dec 14:07:49 14:12:01 32° 101° (E) 14:16:03 437.505
GONETS M04 03 Dec 14:11:44 14:17:35 21° 280° (W) 14:23:29
ITUPSAT 1 03 Dec 14:32:10 14:36:47 50° 100° (E) 14:41:23 437.325
AO-7 03 Dec 14:46:00 14:54:17 82° 70° (ENE) 15:02:38 29.400- 29.500
Gurwin Techsat 1B 03 Dec 14:51:47 14:54:16 13° 269° (W) 14:56:45 435.225
BEESAT 3 03 Dec 14:57:08 15:01:07 78° 240° (WSW) 15:05:04 437.485
SRMSAT 03 Dec 15:07:25 15:09:00 11° 171° (S) 15:10:34 437.500
BEESAT 2 03 Dec 15:19:58 15:24:01 82° 59° (ENE) 15:28:03 435.950
JUGNU 03 Dec 15:21:45 15:23:51 12° 187° (S) 15:25:56 437.505
O/OREOS (USA 219) 03 Dec 15:25:25 15:28:17 17° 100° (E) 15:31:08 437.305
AUBIESAT-1 03 Dec 15:32:20 15:36:36 37° 294° (WNW) 15:40:42 437.475
MOZHAYETS 4 03 Dec 15:38:05 15:42:36 62° 101° (E) 15:47:06
ITAMSAT 1 03 Dec 15:39:22 15:43:06 20° 266° (W) 15:46:51 435.822/435.867
SWISSCUBE 03 Dec 15:40:17 15:44:17 28° 292° (WNW) 15:48:17 437.505
M-CUBED/EXP-1 PRIME 03 Dec 15:42:26 15:46:16 25° 297° (WNW) 15:50:01 437.505
RS-15 03 Dec 15:44:35 15:56:09 42° 44° (NE) 16:07:22 29.354- 29.394
BEESAT 03 Dec 15:44:38 15:48:39 28° 291° (WNW) 15:52:40 436.000
ITUPSAT 1 03 Dec 16:11:16 16:14:11 16° 296° (WNW) 16:17:06 437.325
ISS 03 Dec 16:13:06 16:15:45 22° 131° (SE) 16:18:24 145.825
Cosmos 2491 03 Dec 16:21:16 16:22:32 10° 58° (ENE) 16:23:47 435.465 / 435.565
GOMX 1 03 Dec 16:28:52 16:32:35 26° 68° (ENE) 16:36:32 467.674
KKS-1 03 Dec 16:28:54 16:33:25 89° 288° (WNW) 16:37:53 437.445
BRITE-PL 03 Dec 16:38:10 16:42:21 85° 80° (E) 16:46:50 437.365/2234.400
NOAA 18 03 Dec 16:39:01 16:42:16 16° 61° (ENE) 16:45:33 137.9125
HORYU 2 03 Dec 16:39:24 16:43:53 77° 76° (ENE) 16:48:23 437.375
AO-7 03 Dec 16:42:26 16:47:50 19° 268° (W) 16:53:17 29.400- 29.500
STARS 03 Dec 16:42:48 16:47:10 58° 101° (E) 16:51:30 437.465
CUTE-I 03 Dec 16:51:50 16:56:28 31° 68° (ENE) 17:01:07 437.470
DOVE 4 03 Dec 16:53:47 16:57:19 21° 66° (ENE) 17:01:00 437.250
SRMSAT 03 Dec 16:54:39 16:57:17 13° 182° (S) 16:59:53 437.500
O/OREOS (USA 219) 03 Dec 17:02:58 17:07:18 42° 295° (WNW) 17:11:38 437.305
CUBESAT XI-V 03 Dec 17:10:02 17:14:43 84° 100° (E) 17:19:23 437.345
Cubesat XI-IV 03 Dec 17:16:12 17:21:23 51° 72° (ENE) 17:26:35 437.490
MOZHAYETS 4 03 Dec 17:17:22 17:19:13 12° 296° (WNW) 17:21:03
LilacSat-2 03 Dec 17:22:30 17:26:17 56° 76° (ENE) 17:30:05 437.200
AIST 2 03 Dec 17:22:31 17:26:32 40° 55° (NE) 17:30:31 435.215
NOAA 15 03 Dec 17:23:07 17:28:18 67° 74° (ENE) 17:33:31 137.62
ISS 03 Dec 17:49:05 17:52:07 33° 327° (NNW) 17:55:10 145.825
CUTE 1.7 + AOD 2 03 Dec 17:53:14 17:54:08 11° 64° (ENE) 17:55:02 437.475
RS-15 03 Dec 17:57:13 18:09:17 64° 248° (WSW) 18:20:54 29.354- 29.394
HO-68 03 Dec 18:05:33 18:11:47 33° 64° (ENE) 18:18:00 435.675
GOMX 1 03 Dec 18:06:51 18:10:35 26° 266° (W) 18:14:33 467.674
CANX-2 03 Dec 18:08:21 18:11:21 19° 68° (ENE) 18:14:20 2200.000
Cosmos 2491 03 Dec 18:12:38 18:21:18 64° 80° (E) 18:29:54 435.465 / 435.565
NOAA 18 03 Dec 18:16:48 18:22:18 68° 258° (WSW) 18:27:51 137.9125
STARS 03 Dec 18:21:08 18:22:59 12° 297° (WNW) 18:24:49 437.465
DOVE 4 03 Dec 18:30:21 18:34:41 38° 264° (W) 18:39:17 437.250
CINEMA 3 03 Dec 18:30:48 18:35:32 54° 74° (ENE) 18:40:26 145.822/145.860
CUTE-I 03 Dec 18:31:41 18:36:24 31° 263° (W) 18:41:10 437.470
YUBILEINY 03 Dec 18:38:51 18:46:48 42° 87° (E) 18:54:48 435.215
SEEDS 03 Dec 18:39:05 18:42:26 24° 70° (ENE) 18:45:48 437.485
COMPASS 1 03 Dec 18:54:46 18:58:05 24° 70° (ENE) 19:01:24 437.405
AIST 1 03 Dec 18:55:15 18:56:32 11° 84° (E) 18:57:49
Cubesat XI-IV 03 Dec 18:58:02 19:01:42 19° 267° (W) 19:05:23 437.490
AIST 2 03 Dec 19:01:56 19:04:40 17° 250° (WSW) 19:07:24 435.215
NOAA 15 03 Dec 19:06:08 19:08:31 13° 269° (W) 19:10:54 137.62
CUBEBUG 2 03 Dec 19:07:34 19:11:49 33° 71° (ENE) 19:16:04 437.445
ZACube-1 03 Dec 19:09:08 19:11:20 13° 65° (ENE) 19:13:31 437.345
FUNcube-1 03 Dec 19:17:55 19:20:34 15° 66° (ENE) 19:23:12 145.935
CUTE 1.7 + AOD 2 03 Dec 19:25:15 19:29:25 62° 260° (W) 19:33:36 437.475
Cosmos 2504 03 Dec 19:31:44 19:39:22 44° 87° (E) 19:47:26 435.465 / 435.565
STRAND 1 03 Dec 19:42:02 19:47:09 81° 286° (WNW) 19:52:13 437.568
CANX-2 03 Dec 19:43:10 19:46:58 32° 263° (W) 19:50:45 2200.000
Oscar 11 03 Dec 19:50:43 19:54:32 31° 71° (ENE) 19:58:22 145.826/435.025
HO-68 03 Dec 19:52:30 19:59:15 44° 260° (W) 20:06:03 435.675
UWE-3 03 Dec 19:55:17 19:59:56 71° 76° (ENE) 20:04:34 435.000/436.395/437.385
AAUSAT CUBESAT 2 03 Dec 20:01:46 20:05:50 69° 259° (W) 20:09:57 437.432
CUSAT 1 03 Dec 20:07:18 20:10:23 26° 80° (E) 20:14:09 437.405
CINEMA 3 03 Dec 20:10:12 20:12:59 15° 269° (W) 20:15:49 145.822/145.860
Cosmos 2491 03 Dec 20:10:46 20:17:22 25° 278° (W) 20:23:59 435.465 / 435.565
SEEDS 03 Dec 20:14:38 20:18:02 24° 265° (W) 20:21:27 437.485
RS-15 03 Dec 20:16:27 20:19:04 11° 267° (W) 20:21:40 29.354- 29.394
AIST 1 03 Dec 20:29:24 20:33:34 51° 280° (W) 20:37:48
COMPASS 1 03 Dec 20:30:10 20:33:31 24° 265° (W) 20:36:53 437.405
SO-50 03 Dec 20:31:46 20:36:32 74° 119° (ESE) 20:41:15 436.795
YUBILEINY 03 Dec 20:35:36 20:43:33 39° 286° (WNW) 20:51:36 435.215
ZACube-1 03 Dec 20:42:37 20:47:06 57° 260° (W) 20:51:35 437.345
PCSat 03 Dec 20:42:44 20:47:44 36° 55° (NE) 20:52:42 145.827
CUBEBUG 2 03 Dec 20:44:41 20:48:25 23° 266° (W) 20:52:11 437.445
FUNcube-1 03 Dec 20:51:58 20:56:23 48° 261° (W) 21:00:46 145.935
HUMSAT D 03 Dec 20:58:25 21:02:13 33° 72° (ENE) 21:06:01 437.325/437.525
PRISM 03 Dec 21:12:47 21:16:55 65° 102° (ESE) 21:21:02 437.425
DELFI C3 03 Dec 21:23:20 21:27:11 57° 260° (W) 21:31:03 145.870
Cosmos 2504 03 Dec 21:25:16 21:32:46 38° 287° (WNW) 21:40:45 435.465 / 435.565
Oscar 11 03 Dec 21:27:31 21:30:41 20° 266° (W) 21:33:53 145.826/435.025
TIGRISAT 03 Dec 21:29:36 21:32:40 18° 93° (E) 21:35:42 435.000
ANTELSAT 03 Dec 21:30:14 21:33:29 20° 94° (E) 21:36:39 437.575/2403.000
ESTCUBE 1 03 Dec 21:32:34 21:34:13 12° 64° (ENE) 21:35:53 437.505/2401.250
UWE-3 03 Dec 21:36:15 21:36:47 10° 270° (W) 21:37:18 435.000/436.395/437.385
CUSAT 1 03 Dec 21:49:38 21:52:10 17° 264° (W) 21:55:06 437.405
DANDE 03 Dec 22:10:03 22:12:36 31° 263° (W) 22:15:36 436.750
SO-50 03 Dec 22:14:43 22:17:30 15° 316° (NW) 22:20:16 436.795
CUBEBUG 1 03 Dec 22:20:48 22:24:15 24° 69° (ENE) 22:27:45 437.445
VELOX 1 03 Dec 22:25:31 22:28:32 19° 67° (ENE) 22:31:35 145.980
PCSat 03 Dec 22:26:21 22:30:58 29° 252° (WSW) 22:35:32 145.827
JAS-2 03 Dec 22:31:29 22:34:56 18° 94° (E) 22:38:29 435.910
UNISAT 6 03 Dec 22:34:18 22:38:43 72° 284° (WNW) 22:43:00 437.425
HUMSAT D 03 Dec 22:35:00 22:37:53 18° 266° (W) 22:40:46 437.325/437.525
ISS 03 Dec 22:42:22 22:44:52 19° 27° (NNE) 22:47:21 145.825
DX 1 03 Dec 22:47:29 22:50:18 17° 66° (ENE) 22:53:09 434.975-435.025
POPSAT HIP 1 03 Dec 22:48:59 22:51:26 15° 93° (E) 22:53:51 437.405
UKube-1 03 Dec 22:59:37 23:02:26 17° 66° (ENE) 23:05:15 .
TIGRISAT 03 Dec 23:05:28 23:09:27 34° 289° (WNW) 23:13:21 435.000
ESTCUBE 1 03 Dec 23:06:03 23:10:28 62° 259° (W) 23:14:55 437.505/2401.250
ANTELSAT 03 Dec 23:06:19 23:10:14 31° 290° (WNW) 23:14:02 437.575/2403.000
SPROUT 03 Dec 23:16:07 23:20:09 41° 73° (ENE) 23:24:13 437.525
GONETS M04 03 Dec 23:19:45 23:24:27 16° 78° (ENE) 23:29:08
AISAT 03 Dec 23:23:06 23:27:30 87° 80° (E) 23:31:58 437.250
50 SAT 03 Dec 23:31:33 23:35:03 90° 2° (N) 23:38:35 437.505
BUGSAT 1 03 Dec 23:40:14 23:43:12 19° 94° (E) 23:46:07 437.445
NANOSAT C BR1 03 Dec 23:44:01 23:48:14 65° 102° (ESE) 23:52:23 145.865
QB50P2 03 Dec 23:47:23 23:51:38 84° 101° (E) 23:55:52 145.880/145.840
POLYITAN 1 03 Dec 23:48:00 23:52:15 80° 103° (ESE) 23:56:28 437.675
CUBEBUG 1 03 Dec 23:56:41 00:00:23 27° 264° (W) 00:04:08 437.445
VELOX 1 04 Dec 00:00:38 00:04:42 37° 262° (W) 00:08:49 145.980
QB50P1 04 Dec 00:01:53 00:06:07 71° 285° (WNW) 00:10:19 145.935-145.965
DUCHIFAT 1 04 Dec 00:07:33 00:11:46 71° 284° (WNW) 00:15:55 145.980
Oscar 19 04 Dec 00:14:02 00:15:08 11° 90° (E) 00:16:13 437.125/150
JAS-2 04 Dec 00:15:20 00:20:17 47° 288° (WNW) 00:25:24 435.910
ISS 04 Dec 00:18:20 00:21:35 55° 223° (SW) 00:24:49 145.825
PHONESAT 2.4 04 Dec 00:18:55 00:20:26 14° 148° (SSE) 00:21:58 2401.200-2431.200
DX 1 04 Dec 00:22:07 00:26:10 39° 261° (W) 00:30:16 434.975-435.025
POPSAT HIP 1 04 Dec 00:23:23 00:27:22 40° 288° (WNW) 00:31:18 437.405
Cosmos 2499 04 Dec 00:30:57 00:39:06 58° 91° (E) 00:47:42 435.465 / 435.565
UKube-1 04 Dec 00:34:08 00:38:08 38° 261° (W) 00:42:11 .
AUBIESAT-1 04 Dec 00:42:51 00:45:37 18° 60° (ENE) 00:48:30 437.475
TISAT 1 04 Dec 00:46:29 00:50:42 72° 76° (ENE) 00:54:57 437.305
M-CUBED/EXP-1 PRIME 04 Dec 00:52:13 00:55:36 27° 64° (ENE) 00:59:14 437.505
SPROUT 04 Dec 00:53:47 00:56:15 15° 267° (W) 00:58:44 437.525
SWISSCUBE 04 Dec 01:07:17 01:11:14 27° 68° (ENE) 01:15:12 437.505
GONETS M04 04 Dec 01:11:12 01:19:57 90° 272° (W) 01:28:43
BEESAT 04 Dec 01:11:35 01:15:33 26° 68° (ENE) 01:19:30 436.000
BUGSAT 1 04 Dec 01:14:52 01:18:36 31° 289° (WNW) 01:22:16 437.445
NANOSAT C BR1 04 Dec 01:22:49 01:23:21 10° 297° (WNW) 01:23:53 145.865
Gurwin Techsat 1B 04 Dec 01:27:07 01:31:48 31° 97° (E) 01:36:27 435.225
O/OREOS (USA 219) 04 Dec 01:35:57 01:39:35 24° 61° (ENE) 01:43:12 437.305
ITUPSAT 1 04 Dec 01:36:53 01:41:28 47° 72° (ENE) 01:46:03 437.325
Oscar 19 04 Dec 01:49:47 01:54:58 79° 285° (WNW) 02:00:10 437.125/150
PHONESAT 2.4 04 Dec 01:52:45 01:55:25 83° 161° (SSE) 01:58:04 2401.200-2431.200
ITAMSAT 1 04 Dec 02:14:12 02:17:43 18° 93° (E) 02:21:13 435.822/435.867
AO-85 04 Dec 02:14:55 02:19:52 62° 118° (ESE) 02:24:29 145.980
AUBIESAT-1 04 Dec 02:15:56 02:19:39 38° 258° (WSW) 02:23:40 437.475
Cosmos 2499 04 Dec 02:25:28 02:32:40 30° 290° (WNW) 02:40:11 435.465 / 435.565
M-CUBED/EXP-1 PRIME 04 Dec 02:26:51 02:30:02 23° 261° (W) 02:33:26 437.505
MOZHAYETS 4 04 Dec 02:37:52 02:42:16 46° 73° (ENE) 02:46:40
SWISSCUBE 04 Dec 02:44:46 02:48:54 29° 263° (W) 02:53:03 437.505
BEESAT 04 Dec 02:49:03 02:53:12 29° 263° (W) 02:57:22 436.000
AO-7 04 Dec 02:50:25 02:57:34 30° 97° (E) 03:04:38 29.400- 29.500
Gurwin Techsat 1B 04 Dec 03:07:03 03:11:39 30° 292° (WNW) 03:16:13 435.225
GONETS M04 04 Dec 03:12:44 03:17:59 17° 296° (WNW) 03:23:16
O/OREOS (USA 219) 04 Dec 03:15:06 03:18:57 29° 257° (WSW) 03:22:47 437.305
ITUPSAT 1 04 Dec 03:16:33 03:19:31 16° 267° (W) 03:22:29 437.325
KKS-1 04 Dec 03:24:43 03:29:08 66° 75° (ENE) 03:33:35 437.445
PHONESAT 2.4 04 Dec 03:28:15 03:30:48 42° 358° (N) 03:33:21 2401.200-2431.200
STARS 04 Dec 03:37:22 03:41:30 40° 72° (ENE) 03:45:39 437.465
ITAMSAT 1 04 Dec 03:52:26 03:57:25 48° 289° (WNW) 04:02:21 435.822/435.867
AO-85 04 Dec 03:57:28 04:00:37 17° 313° (NW) 04:03:38 145.980
CUBESAT XI-V 04 Dec 04:11:13 04:15:45 64° 75° (ENE) 04:20:19 437.345
MOZHAYETS 4 04 Dec 04:16:58 04:19:38 15° 268° (W) 04:22:18
HORYU 2 04 Dec 04:33:24 04:36:13 16° 94° (E) 04:38:59 437.375
GOMX 1 04 Dec 04:33:53 04:35:40 11° 89° (E) 04:37:27 467.674
AO-7 04 Dec 04:42:29 04:50:36 57° 294° (WNW) 04:58:42 29.400- 29.500
BRITE-PL 04 Dec 04:43:41 04:48:39 36° 97° (E) 04:53:48 437.365/2234.400
BEESAT 3 04 Dec 04:45:54 04:49:08 25° 113° (ESE) 04:52:24 437.485
YUBILEINY 04 Dec 04:52:09 04:57:52 18° 65° (ENE) 05:03:33 435.215
PHONESAT 2.4 04 Dec 05:03:35 05:06:15 71° 16° (NNE) 05:08:53 2401.200-2431.200
SO-50 04 Dec 05:05:13 05:09:27 37° 53° (NE) 05:13:35 436.795
BEESAT 2 04 Dec 05:10:31 05:13:31 21° 111° (ESE) 05:16:33 435.950
CUTE-I 04 Dec 05:12:12 05:14:40 13° 91° (E) 05:17:07 437.470
STARS 04 Dec 05:15:11 05:17:59 16° 267° (W) 05:20:48 437.465
STRAND 1 04 Dec 05:19:57 05:22:28 14° 62° (ENE) 05:25:00 437.568
Cosmos 2491 04 Dec 05:21:02 05:24:21 13° 76° (ENE) 05:27:39 435.465 / 435.565
Cosmos 2504 04 Dec 05:28:44 05:33:10 15° 61° (ENE) 05:37:30 435.465 / 435.565
Cubesat XI-IV 04 Dec 05:35:59 05:40:12 23° 95° (E) 05:44:22 437.490
NOAA 15 04 Dec 05:40:32 05:45:05 29° 96° (E) 05:49:37 137.62
CUBESAT XI-V 04 Dec 05:52:31 05:53:32 11° 270° (W) 05:54:33 437.345
RS-15 04 Dec 06:07:52 06:16:47 26° 101° (E) 06:25:58 29.354- 29.394
HORYU 2 04 Dec 06:08:45 06:12:54 40° 288° (WNW) 06:17:01 437.375
GOMX 1 04 Dec 06:08:46 06:14:15 83° 284° (WNW) 06:19:44 467.674
BRITE-PL 04 Dec 06:22:22 06:26:57 29° 291° (WNW) 06:31:42 437.365/2234.400
BEESAT 3 04 Dec 06:23:28 06:26:41 24° 309° (NW) 06:29:56 437.485
CINEMA 3 04 Dec 06:29:08 06:31:56 15° 91° (E) 06:34:40 145.822/145.860
DOVE 4 04 Dec 06:30:24 06:35:44 71° 102° (ESE) 06:40:52 437.250
LilacSat-2 04 Dec 06:31:41 06:35:27 70° 285° (WNW) 06:39:11 437.200
AIST 1 04 Dec 06:38:21 06:42:16 30° 77° (ENE) 06:46:09
AO-7 04 Dec 06:39:10 06:41:33 11° 314° (NW) 06:43:55 29.400- 29.500
PHONESAT 2.4 04 Dec 06:39:12 06:41:20 21° 209° (SSW) 06:43:27 2401.200-2431.200
NOAA 18 04 Dec 06:40:47 06:46:17 61° 102° (ESE) 06:51:43 137.9125
SO-50 04 Dec 06:46:18 06:49:38 21° 249° (WSW) 06:52:55 436.795
YUBILEINY 04 Dec 06:46:56 06:55:48 86° 265° (W) 07:04:39 435.215
BEESAT 2 04 Dec 06:47:40 06:51:07 29° 307° (NW) 06:54:38 435.950
CUTE-I 04 Dec 06:49:52 06:55:10 68° 286° (WNW) 07:00:25 437.470
STRAND 1 04 Dec 06:55:54 07:01:01 69° 258° (WSW) 07:06:10 437.568
Cosmos 2491 04 Dec 07:10:51 07:19:37 78° 94° (E) 07:28:23 435.465 / 435.565
CUTE 1.7 + AOD 2 04 Dec 07:12:21 07:15:49 25° 95° (E) 07:19:16 437.475
Cubesat XI-IV 04 Dec 07:15:24 07:20:22 40° 290° (WNW) 07:25:17 437.490
Cosmos 2504 04 Dec 07:19:16 07:28:08 78° 82° (E) 07:36:28 435.465 / 435.565
NOAA 15 04 Dec 07:20:09 07:24:48 32° 292° (WNW) 07:29:25 137.62
AIST 2 04 Dec 07:20:19 07:22:07 13° 108° (ESE) 07:23:57 435.215
HO-68 04 Dec 07:21:53 07:28:36 41° 99° (E) 07:35:17 435.675
CANX-2 04 Dec 07:29:26 07:33:30 46° 99° (E) 07:37:33 2200.000
AAUSAT CUBESAT 2 04 Dec 07:46:23 07:49:29 20° 94° (E) 07:52:34 437.432
UWE-3 04 Dec 07:48:27 07:50:59 15° 92° (E) 07:53:28 435.000/436.395/437.385
GOMX 1 04 Dec 07:50:15 07:51:26 11° 299° (WNW) 07:52:39 467.674
SEEDS 04 Dec 07:59:13 08:03:21 60° 100° (E) 08:07:29 437.485
PRISM 04 Dec 08:00:19 08:04:00 34° 71° (ENE) 08:07:42 437.425
CINEMA 3 04 Dec 08:04:42 08:09:22 48° 287° (WNW) 08:13:48 145.822/145.860
DOVE 4 04 Dec 08:09:58 08:12:42 14° 297° (WNW) 08:15:26 437.250
COMPASS 1 04 Dec 08:13:41 08:17:46 58° 100° (E) 08:21:52 437.405
RS-15 04 Dec 08:16:06 08:27:50 80° 302° (WNW) 08:40:12 29.354- 29.394
AIST 1 04 Dec 08:16:27 08:19:37 20° 273° (W) 08:22:46
NOAA 18 04 Dec 08:22:49 08:26:23 18° 298° (WNW) 08:29:56 137.9125
TIGRISAT 04 Dec 08:26:50 08:29:33 15° 65° (ENE) 08:32:15 435.000
ANTELSAT 04 Dec 08:27:30 08:30:26 17° 66° (ENE) 08:33:21 437.575/2403.000
ZACube-1 04 Dec 08:33:17 08:37:01 29° 96° (E) 08:40:40 437.345
CUBEBUG 2 04 Dec 08:36:29 08:40:56 87° 286° (WNW) 08:45:12 437.445
FUNcube-1 04 Dec 08:42:06 08:45:57 34° 97° (E) 08:49:44 145.935
YUBILEINY 04 Dec 08:46:44 08:51:11 15° 283° (WNW) 08:55:40 435.215
CUTE 1.7 + AOD 2 04 Dec 08:48:08 08:51:33 24° 290° (WNW) 08:54:56 437.475
AIST 2 04 Dec 08:56:07 09:00:06 50° 303° (WNW) 09:04:10 435.215
DELFI C3 04 Dec 09:03:03 09:05:56 19° 94° (E) 09:08:49 145.870
CANX-2 04 Dec 09:06:49 09:08:56 14° 294° (WNW) 09:11:03 2200.000
CUSAT 1 04 Dec 09:09:16 09:12:18 27° 97° (E) 09:14:52 437.405
HO-68 04 Dec 09:09:45 09:16:11 37° 295° (WNW) 09:22:35 435.675
Cosmos 2491 04 Dec 09:11:10 09:17:22 21° 294° (WNW) 09:23:36 435.465 / 435.565
Cosmos 2504 04 Dec 09:14:34 09:20:24 20° 281° (W) 09:26:03 435.465 / 435.565
Oscar 11 04 Dec 09:15:04 09:19:23 85° 105° (ESE) 09:23:40 145.826/435.025
AAUSAT CUBESAT 2 04 Dec 09:21:23 09:24:56 28° 289° (WNW) 09:28:29 437.432
UWE-3 04 Dec 09:23:36 09:27:38 39° 288° (WNW) 09:31:32 435.000/436.395/437.385
UNISAT 6 04 Dec 09:30:23 09:35:05 78° 78° (ENE) 09:39:46 437.425
DANDE 04 Dec 09:34:38 09:38:12 19° 96° (E) 09:41:11 436.750
PRISM 04 Dec 09:36:51 09:39:23 16° 266° (W) 09:41:57 437.425
SEEDS 04 Dec 09:37:32 09:38:31 11° 295° (WNW) 09:39:30 437.485
COMPASS 1 04 Dec 09:51:41 09:52:47 11° 295° (WNW) 09:53:55 437.405
TIGRISAT 04 Dec 10:01:12 10:05:46 52° 260° (W) 10:10:21 435.000
ANTELSAT 04 Dec 10:02:11 10:06:43 48° 261° (W) 10:11:15 437.575/2403.000
ZACube-1 04 Dec 10:09:59 10:13:05 20° 292° (WNW) 10:16:09 437.345
HUMSAT D 04 Dec 10:18:31 10:22:36 83° 100° (E) 10:26:40 437.325/437.525
FUNcube-1 04 Dec 10:19:06 10:21:54 17° 293° (WNW) 10:24:40 145.935
JAS-2 04 Dec 10:24:21 10:30:53 57° 73° (ENE) 10:36:40 435.910
Cosmos 2499 04 Dec 10:26:32 10:32:05 18° 64° (ENE) 10:37:24 435.465 / 435.565
BUGSAT 1 04 Dec 10:29:50 10:31:05 11° 64° (ENE) 10:32:21 437.445
RS-15 04 Dec 10:32:52 10:42:39 28° 328° (NNW) 10:52:44 29.354- 29.394
NANOSAT C BR1 04 Dec 10:34:04 10:37:59 36° 72° (ENE) 10:41:55 145.865
DELFI C3 04 Dec 10:37:21 10:40:44 27° 289° (WNW) 10:44:06 145.870
QB50P2 04 Dec 10:37:46 10:41:52 47° 73° (ENE) 10:46:00 145.880/145.840
POLYITAN 1 04 Dec 10:38:23 10:42:28 45° 73° (ENE) 10:46:35 437.675
AO-85 04 Dec 10:48:56 10:52:19 26° 51° (NE) 10:55:37 145.980
QB50P1 04 Dec 10:51:55 10:56:08 65° 75° (ENE) 11:00:24 145.935-145.965
DUCHIFAT 1 04 Dec 10:56:58 11:01:11 63° 75° (ENE) 11:05:24 145.980
ESTCUBE 1 04 Dec 11:00:32 11:04:32 30° 97° (E) 11:08:31 437.505/2401.250
POPSAT HIP 1 04 Dec 11:13:12 11:17:28 72° 258° (WSW) 11:21:46 437.405
AISAT 04 Dec 11:15:56 11:19:07 19° 94° (E) 11:22:16 437.250
DANDE 04 Dec 11:16:24 11:20:47 29° 280° (W) 11:24:15 436.750
PCSat 04 Dec 11:22:14 11:27:23 48° 112° (ESE) 11:32:35 145.827
GONETS M04 04 Dec 11:24:05 11:32:13 41° 75° (ENE) 11:40:19
Oscar 19 04 Dec 11:28:24 11:31:05 14° 62° (ENE) 11:33:47 437.125/150
CUBEBUG 1 04 Dec 11:46:10 11:50:34 61° 101° (E) 11:54:57 437.445
VELOX 1 04 Dec 11:52:05 11:56:23 45° 99° (E) 12:00:40 145.980
BUGSAT 1 04 Dec 12:01:44 12:05:53 60° 259° (W) 12:10:06 437.445
NANOSAT C BR1 04 Dec 12:11:03 12:13:48 17° 267° (W) 12:16:34 145.865
JAS-2 04 Dec 12:11:21 12:16:06 20° 265° (W) 12:20:32 435.910
DX 1 04 Dec 12:11:50 12:15:57 38° 99° (E) 12:20:03 434.975-435.025
QB50P2 04 Dec 12:15:53 12:17:54 13° 268° (W) 12:19:55 145.880/145.840
POLYITAN 1 04 Dec 12:16:15 12:18:28 14° 268° (W) 12:20:41 437.675
Cosmos 2499 04 Dec 12:17:44 12:26:25 86° 266° (W) 12:34:25 435.465 / 435.565
UKube-1 04 Dec 12:22:44 12:26:47 37° 98° (E) 12:30:48 .
AO-85 04 Dec 12:29:31 12:32:33 22° 248° (WSW) 12:35:33 145.980
50 SAT 04 Dec 12:32:34 12:36:04 57° 285° (WNW) 12:39:34 437.505
TISAT 1 04 Dec 12:34:04 12:35:55 13° 92° (E) 12:37:44 437.305
ESTCUBE 1 04 Dec 12:37:37 12:41:08 23° 292° (WNW) 12:44:40 437.505/2401.250
SPROUT 04 Dec 12:39:12 12:43:30 77° 284° (WNW) 12:47:46 437.525
Gurwin Techsat 1B 04 Dec 12:46:14 12:51:11 41° 71° (ENE) 12:56:10 435.225
AISAT 04 Dec 12:51:34 12:55:39 36° 289° (WNW) 12:59:43 437.250
RS-15 04 Dec 12:53:51 13:01:25 18° 4° (N) 13:08:59 29.354- 29.394
Oscar 19 04 Dec 13:04:45 13:09:48 66° 258° (WSW) 13:14:56 437.125/150
BEESAT 3 04 Dec 13:05:52 13:07:01 11° 44° (NE) 13:08:10 437.485
PCSat 04 Dec 13:06:41 13:11:00 24° 309° (NW) 13:15:21 145.827
